This is the latest recevied weather packets stored in our database for station/object W8CEN. If no packets are shown the sender has not sent any weather packets the latest 10 day(s).
| Time | Temp. | Humidity | Pressure | Rain* | Wind** | Luminosity | Snow |
|---|---|---|---|---|---|---|---|
| 1778049208 | 7.22° C | 98% | 987.8 hPa | 0 mm | - | 0 W/m² | - |
| 1778048906 | 7.22° C | 98% | 988 hPa | 0 mm | - | 0 W/m² | - |
| 1778048603 | 7.22° C | 98% | 987.9 hPa | 0 mm | - | 0 W/m² | - |
| 1778048299 | 7.22° C | 98% | 987.8 hPa | 1.27 mm | - | 0 W/m² | - |
| 1778047996 | 7.78° C | 97% | 987.5 hPa | 1.27 mm | - | 0 W/m² | - |
| 1778047695 | 7.78° C | 98% | 987.6 hPa | 0 mm | - | 0 W/m² | - |
| 1778047393 | 7.78° C | 97% | 987.5 hPa | 0 mm | - | 0 W/m² | - |
| 1778047088 | 7.78° C | 97% | 987.7 hPa | 0 mm | - | 0 W/m² | - |
| 1778046786 | 7.78° C | 98% | 987.5 hPa | 0 mm | - | 0 W/m² | - |
| 1778046483 | 7.78° C | 98% | 987.8 hPa | 1.78 mm | - | 0 W/m² | - |
| 1778046179 | 7.78° C | 98% | 987.8 hPa | 1.78 mm | - | 0 W/m² | - |
| 1778045875 | 7.78° C | 98% | 987.9 hPa | 1.27 mm | - | 0 W/m² | - |
| 1778045575 | 7.78° C | 98% | 987.9 hPa | 1.27 mm | - | 0 W/m² | - |
| 1778045272 | 8.33° C | 98% | 988.2 hPa | 1.78 mm | - | 0 W/m² | - |
| 1778044971 | 8.33° C | 98% | 988 hPa | 1.78 mm | - | 0 W/m² | - |
| 1778044668 | 8.33° C | 98% | 987.9 hPa | 0 mm | - | 0 W/m² | - |
| 1778044364 | 8.89° C | 98% | 987.9 hPa | 1.27 mm | - | 0 W/m² | - |
| 1778044062 | 8.89° C | 98% | 987.7 hPa | 1.27 mm | - | 0 W/m² | - |
| 1778043759 | 8.89° C | 98% | 987.7 hPa | 1.78 mm | - | 0 W/m² | - |
| 1778043455 | 8.89° C | 98% | 987.8 hPa | 1.78 mm | - | 0 W/m² | - |
| 1778043152 | 8.89° C | 98% | 987.9 hPa | 1.27 mm | - | 0 W/m² | - |
| 1778042850 | 8.89° C | 98% | 987.7 hPa | 1.27 mm | - | 0 W/m² | - |
| 1778042547 | 8.89° C | 98% | 987.8 hPa | 0 mm | - | 0 W/m² | - |
| 1778042244 | 8.89° C | 98% | 987.6 hPa | 1.78 mm | - | 0 W/m² | - |
| 1778041942 | 8.89° C | 98% | 987.8 hPa | 1.78 mm | - | 0 W/m² | - |
* Rain latest hour (hover to see other rain measurements)
** Current wind speed in m/s (hover to see current wind gust speed)